This demonstration page uses our WeatherBlox Daily Observations layout. Learn more.

Left ArrowRight Arrow

Hourly Observations for December 7, 2015

Temp ( °F °C ) Dew Point ( °F °C ) Humidity (%) Winds ( mph kmh ) Pressure ( in mb ) Visibility ( mi km ) Precip ( " mm )
12:53 am 00:53 Cloudy 38 3.3 35 1.7 89 89 N N/A 30.24 1024 10 16 N/A
1:53 am 01:53 Cloudy 39 3.9 35 1.7 86 86 N N/A 30.23 1024 10 16 N/A
2:53 am 02:53 Cloudy 39 3.9 36 2.2 89 89 N N/A 30.22 1023 10 16 N/A
3:53 am 03:53 Cloudy 39 3.9 36 2.2 89 89 N N/A 30.21 1023 10 16 N/A
4:53 am 04:53 Cloudy 39 3.9 37 2.8 93 93 N N/A 30.21 1023 10 16 N/A
5:53 am 05:53 Cloudy 39 3.9 37 2.8 93 93 N N/A 30.22 1023 8 13 N/A
6:53 am 06:53 Cloudy 39 3.9 37 2.8 93 93 N N/A 30.23 1024 9 14 0.01 0.25
7:53 am 07:53 Cloudy 39 3.9 38 3.3 96 96 N N/A 30.24 1024 7 11 N/A
8:53 am 08:53 Cloudy with Mist and Fog 41 5 39 3.9 93 93 N N/A 30.24 1024 6 10 N/A
9:32 am 09:32 Cloudy with Mist and Fog 42 5.6 40 4.4 92 92 N N/A 30.24 1024 6 10 N/A
9:53 am 09:53 Cloudy 43 6.1 40 4.4 89 89 N N/A 30.25 1025 7 11 N/A
10:30 am 10:30 Cloudy 44 6.7 41 5 89 89 N N/A 30.24 1024 7 11 N/A
10:53 am 10:53 Cloudy 45 7.2 41 5 86 86 N N/A 30.25 1025 8 13 N/A
11:53 am 11:53 Mostly Cloudy 49 9.4 41 5 74 74 WSW 6 9 30.24 1024 10 16 N/A
12:30 pm 12:30 Cloudy 48 8.9 41 5 77 77 WSW 5 7 30.21 1023 10 16 N/A
12:53 pm 12:53 Cloudy 50 10 41 5 71 71 SSW 5 7 30.22 1023 10 16 N/A
1:00 pm 13:00 Cloudy 50 10 41 5 71 71 VRB 5 7 30.21 1023 10 16 N/A
1:53 pm 13:53 Mostly Cloudy 51 10.6 40 4.4 66 66 WSW 5 7 30.20 1023 10 16 N/A
2:53 pm 14:53 Mostly Cloudy 52 11.1 40 4.4 64 64 VRB 3 6 30.18 1022 10 16 N/A
3:01 pm 15:01 Mostly Cloudy 51 10.6 39 3.9 64 64 N N/A 30.18 1022 10 16 N/A
3:11 pm 15:11 Mostly Cloudy 52 11.1 40 4.4 64 64 N N/A 30.18 1022 10 16 N/A
3:39 pm 15:39 Mostly Cloudy 51 10.6 39 3.9 64 64 SSE 3 6 30.18 1022 10 16 N/A
3:53 pm 15:53 Cloudy 51 10.6 39 3.9 64 64 SW 5 7 30.18 1022 10 16 N/A
4:32 pm 16:32 Cloudy 50 10 39 3.9 66 66 WSW 6 9 30.18 1022 10 16 N/A
4:53 pm 16:53 Cloudy 50 10 39 3.9 66 66 WSW 6 9 30.20 1023 10 16 N/A
5:53 pm 17:53 Cloudy 49 9.4 40 4.4 71 71 SW 3 6 30.20 1023 10 16 N/A
6:53 pm 18:53 Cloudy 48 8.9 40 4.4 74 74 WSW 3 6 30.20 1023 10 16 N/A
7:53 pm 19:53 Cloudy 45 7.2 39 3.9 80 80 N N/A 30.19 1023 10 16 N/A
8:53 pm 20:53 Cloudy 46 7.8 40 4.4 79 79 N N/A 30.19 1022 10 16 N/A
9:53 pm 21:53 Cloudy 45 7.2 40 4.4 83 83 N N/A 30.17 1022 10 16 N/A
10:31 pm 22:31 Cloudy 46 7.8 40 4.4 79 79 SSW 5 7 30.15 1021 10 16 N/A
10:53 pm 22:53 Cloudy 46 7.8 40 4.4 79 79 SSW 3 6 30.16 1022 10 16 N/A
11:53 pm 23:53 Cloudy 47 8.3 39 3.9 74 74 SW 3 6 30.16 1021 10 16 N/A

Powered by AerisWeather